Temperature
14 13 12 12 12 14 15 14 13 12 13 13 12 11 12 13 13 14 15 15 16 16 16 17 17 18 18 17 17 16 16 15 14 14 13 12 12 12 11 11 10 10 10 9
13 12 13 13 13 13 13 13 12 12 13 13 11 11 12 12 13 14 14 15 16 16 17 17 17 17 17 16 16 16 15 15 14 13 12 12 11 11 11 10 10 10 10 9
13 14 14 13 13 13 13 13 13 13 13 12 12 13 13 13 13 13 14 14 15 16 16 16 16 16 16 16 15 15 15 14 13 13 12 11 11 11 11 10 10 10 9 9
12 12 13 14 13 13 13 13 13 13 13 11 12 12 13 13 13 13 13 14 15 15 15 15 15 15 15 14 14 14 14 13 13 12 12 11 11 11 10 10 9 9 9 8
13 14 14 14 14 13 13 13 13 13 12 11 10 11 11 12 13 12 13 14 14 14 14 14 14 14 14 13 13 13 13 13 12 12 12 11 11 11 10 10 10 9 9 8
13 14 15 14 14 13 13 12 10 9 9 11 12 11 12 11 12 12 12 13 14 14 14 14 13 13 13 13 13 12 12 12 12 11 11 11 11 10 10 10 10 9 9 9
14 14 14 14 14 13 13 12 12 13 12 12 11 10 11 12 11 11 12 13 14 14 13 13 13 13 12 12 12 12 12 11 11 11 10 10 10 10 9 9 9 9 9 8
14 13 14 13 14 13 12 12 13 13 12 11 11 10 11 11 10 11 13 14 14 13 13 13 12 12 12 11 11 11 11 11 10 10 10 9 9 9 9 8 8 8 8 8
12 13 13 13 13 12 12 11 11 10 10 10 10 10 10 12 10 10 11 13 13 13 13 12 12 11 11 11 11 10 10 10 10 9 9 9 8 8 8 8 7 7 7 7
12 14 13 13 13 12 12 10 9 10 11 11 11 10 11 12 12 11 10 12 13 13 12 12 11 11 11 10 10 10 9 9 9 8 8 8 7 7 7 7 7 6 6 6
12 13 13 13 12 12 11 11 10 9 9 10 10 11 11 11 11 10 11 12 13 12 12 11 11 11 10 10 9 9 9 8 8 7 7 7 7 6 6 6 6 6 6 6
11 11 12 12 12 11 11 11 9 11 10 8 9 10 12 10 10 11 12 12 12 12 11 11 10 10 10 9 9 8 8 7 7 6 6 6 6 6 6 6 6 6 5 5
10 11 12 13 12 11 11 10 9 9 8 6 7 11 10 10 10 11 11 11 11 11 10 10 10 10 9 9 8 7 7 6 6 6 6 5 5 5 5 5 5 5 5 5
11 11 12 13 12 11 11 10 9 8 8 7 7 10 11 10 9 9 10 10 10 10 10 10 9 9 8 8 7 6 6 6 5 5 5 5 5 5 5 5 5 4 4 4
11 11 11 11 11 11 11 11 9 8 8 9 9 9 10 9 9 9 9 9 9 9 9 9 8 8 7 7 6 6 5 5 5 4 4 4 4 4 4 4 4 4 3 3
9 10 10 10 10 9 9 9 9 8 8 8 8 8 8 8 8 8 9 9 9 8 8 8 7 7 6 6 5 5 4 4 4 4 4 4 4 3 3 3 3 3 3 2
8 8 9 9 9 9 8 9 9 8 7 7 8 8 8 7 7 8 8 8 8 8 7 7 6 6 5 5 4 4 4 3 3 3 3 3 3 3 3 2 2 2 1 1
7 8 7 7 9 8 10 10 9 8 8 7 7 7 7 8 8 9 8 8 7 7 6 6 5 5 4 4 3 3 3 3 3 3 3 2 2 2 2 1 1 1 0 -0
7 7 6 6 7 7 8 8 7 7 7 7 6 6 7 7 7 7 7 7 6 6 5 5 4 4 4 3 3 3 3 3 2 2 2 2 1 1 1 0 0 -0 -1 -1
6 6 6 5 7 7 9 9 9 8 7 7 7 6 7 6 5 5 7 6 5 5 4 4 4 3 3 3 3 2 2 2 2 1 1 1 0 -0 -0 -1 -1 -1 -2 -2
6 6 6 5 6 7 8 8 8 8 8 7 7 7 7 5 5 6 5 5 4 4 4 3 3 3 3 2 2 2 2 1 1 1 0 0 -0 -1 -1 -1 -2 -2 -3 -3
6 5 5 5 6 7 8 7 7 7 7 7 7 7 6 6 6 5 4 4 4 3 3 3 3 3 3 2 1 1 1 1 0 0 -0 -0 -1 -1 -2 -2 -2 -3 -4 -4
6 7 6 6 7 7 7 7 8 8 7 7 7 6 6 5 5 4 4 3 3 3 3 2 2 2 2 2 1 1 0 -0 -0 -0 -0 -1 -1 -2 -2 -3 -3 -4 -4 -5
5 5 4 4 5 6 6 7 7 7 7 6 6 5 5 4 4 3 3 3 3 3 2 2 2 1 1 1 1 0 -0 -1 -1 -1 -1 -2 -2 -2 -3 -4 -4 -5 -6 -6
6 4 4 4 4 5 5 6 6 6 6 5 5 4 4 3 3 3 3 3 2 2 2 1 1 1 1 0 0 0 -1 -1 -2 -2 -2 -2 -3 -3 -4 -4 -5 -6 -6 -7
4 4 4 5 5 4 5 6 6 5 5 4 4 3 3 3 3 2 2 2 2 2 1 1 1 0 0 0 -0 -0 -1 -2 -2 -3 -3 -3 -4 -4 -5 -6 -6 -6 -7 -6
Wind_Speed
3 2 5 9 9 5 2 4 7 8 5 4 7 10 12 8 1 2 3 5 8 8 8 10 10 10 9 6 2 3 5 6 6 5 6 6 8 6 6 11 16 19 21 21
3 6 9 5 4 4 3 5 7 7 3 2 7 9 7 3 1 2 2 4 6 8 11 12 12 12 11 8 5 1 2 5 6 6 5 4 3 4 6 8 14 19 21 21
9 6 2 5 4 5 5 6 6 6 6 3 6 7 4 3 3 2 3 3 5 6 8 10 11 11 11 11 8 4 1 2 5 5 4 2 2 1 2 5 7 13 19 20
7 6 3 5 6 8 6 6 6 3 2 5 4 4 5 2 2 1 1 3 4 6 7 7 9 10 10 9 8 6 4 2 2 5 4 6 6 6 7 5 6 7 14 19
6 4 5 6 7 9 7 2 2 1 2 3 2 2 8 2 5 6 4 1 2 4 6 7 7 7 7 8 8 7 6 5 2 2 5 5 7 8 6 4 6 7 8 14
7 4 4 5 1 4 5 5 5 5 4 2 3 4 6 4 7 6 5 4 1 2 4 5 5 6 7 8 8 8 8 6 4 1 2 5 7 8 7 8 8 7 6 7
4 4 3 4 5 2 4 4 4 5 4 4 1 3 8 6 5 7 8 8 5 2 2 3 5 6 7 8 8 7 8 6 5 3 1 3 6 7 8 9 8 8 6 6
3 5 5 5 6 7 5 6 5 3 4 6 3 6 7 5 5 4 6 7 5 3 1 1 2 4 5 6 7 7 7 6 6 5 4 4 4 4 5 7 7 7 7 8
8 5 1 2 1 8 6 4 5 6 2 4 7 8 8 1 4 3 5 5 5 4 2 1 2 3 4 5 5 5 6 6 6 6 6 6 5 5 6 7 6 6 7 8
9 4 1 1 4 4 4 8 6 4 2 4 7 6 5 4 3 3 5 6 5 3 2 0 1 2 3 4 4 5 5 5 6 6 5 5 6 6 6 6 7 8 8 8
7 5 2 2 6 7 5 4 5 4 4 5 4 7 6 7 6 7 7 6 5 4 3 1 1 2 3 4 5 5 6 6 6 7 6 7 7 7 7 6 8 8 8 9
6 5 3 5 1 3 6 7 8 5 5 5 4 8 4 5 4 5 4 3 2 1 1 1 1 3 4 5 6 6 6 6 6 6 6 7 7 7 7 8 9 9 9 9
7 6 2 2 3 0 3 5 5 5 5 6 6 8 2 1 1 1 2 1 1 1 1 1 2 3 5 6 6 7 7 7 7 6 7 8 8 8 9 9 10 10 10 10
6 5 7 9 7 7 6 6 7 7 5 7 10 9 5 4 4 3 2 2 2 1 1 1 3 4 6 6 6 7 7 7 7 7 7 8 9 9 10 10 10 11 10 11
6 5 6 5 3 5 7 8 9 10 10 11 10 10 10 8 7 4 4 3 2 1 2 3 4 5 6 7 7 7 7 7 6 7 8 9 10 9 10 10 11 11 11 12
4 5 3 2 0 3 6 10 11 12 9 10 9 10 6 3 2 4 4 3 2 1 3 5 6 7 7 7 7 7 7 7 7 8 9 10 10 10 11 11 12 12 12 12
5 7 5 4 2 4 8 11 11 8 7 8 9 7 2 2 3 3 3 3 1 3 5 6 7 7 7 7 6 7 8 8 8 9 10 10 11 11 12 12 12 13 13 12
8 8 5 3 2 8 8 2 6 6 5 7 5 3 4 4 2 1 2 2 2 4 5 6 6 7 6 6 6 7 8 8 9 10 11 11 11 12 13 13 13 14 12 13
4 8 5 5 5 9 9 5 7 7 4 4 6 5 4 3 3 3 1 1 2 3 4 5 5 5 6 7 7 8 9 9 10 11 11 11 11 13 14 14 15 14 14 14
4 4 6 5 5 8 7 2 4 5 3 3 6 6 5 4 1 3 2 2 4 5 4 5 6 5 7 7 7 8 10 10 11 12 12 12 12 13 15 16 16 14 13 15
5 3 5 6 7 9 7 3 6 4 6 6 7 6 6 5 5 4 3 4 4 5 6 6 6 6 7 8 7 9 11 11 12 12 12 12 12 13 15 15 14 14 15 16
9 8 7 7 7 10 3 7 8 6 5 6 6 5 5 5 4 3 4 5 6 6 6 6 6 8 9 8 8 10 12 12 12 12 13 13 13 12 13 14 15 14 14 16
8 8 7 9 8 2 1 5 3 6 6 5 4 3 2 2 3 3 4 5 6 6 6 6 7 9 10 9 9 11 13 13 13 13 13 13 14 12 11 13 15 14 13 13
5 3 4 4 5 3 2 4 4 4 5 4 3 2 1 2 3 4 5 5 6 6 7 7 8 10 11 11 10 11 13 12 12 14 14 13 13 14 11 10 11 12 13 13
4 6 4 4 3 2 2 3 4 3 3 2 1 0 1 2 4 4 5 6 6 7 7 7 9 11 13 12 12 12 12 12 13 13 13 13 12 13 13 11 11 13 12 15
4 6 7 6 5 6 5 5 4 4 2 2 2 1 1 3 5 5 6 6 7 8 8 9 10 11 13 13 13 12 11 10 12 13 12 11 11 12 12 14 15 18 20 26
Wind_Direction
51 83 224 221 205 204 207 243 269 267 283 297 273 283 297 314 359 108 56 23 18 10 354 11 20 25 34 39 59 192 196 191 171 172 189 205 224 222 222 224 223 219 218 216
32 259 239 202 176 195 218 262 274 289 303 286 301 297 304 347 87 132 102 47 26 13 12 15 21 29 30 27 20 3 212 194 188 188 176 184 192 214 219 224 228 226 223 221
209 236 158 153 176 189 220 217 243 272 325 5 336 331 354 16 35 58 52 41 32 30 21 15 18 22 24 22 10 6 325 201 195 179 151 124 107 347 246 230 232 230 228 227
233 260 217 208 217 183 252 233 214 241 332 308 19 310 284 300 317 294 5 22 27 26 28 27 23 21 19 11 11 21 30 64 165 166 172 190 209 232 237 230 234 232 227 229
242 224 194 210 223 181 211 109 149 187 183 304 333 210 285 275 233 237 231 235 25 36 40 37 29 25 21 16 22 24 39 47 63 161 190 203 231 246 259 256 252 247 235 232
243 245 216 209 135 156 134 88 70 63 84 303 229 179 278 232 219 218 212 210 198 64 47 38 30 32 25 21 24 25 35 35 33 66 199 221 243 259 273 271 267 264 253 243
269 241 223 148 122 79 114 92 7 349 5 264 235 205 252 254 242 216 198 197 195 155 74 34 32 28 21 17 14 15 25 21 15 18 318 256 254 259 262 270 271 273 271 261
232 266 218 188 179 172 171 146 162 233 260 290 295 238 255 282 294 240 185 171 175 175 155 58 42 32 13 8 7 7 10 2 355 352 332 304 279 267 266 268 268 269 269 268
192 242 55 141 148 137 136 166 156 134 167 270 285 291 304 330 36 91 135 156 189 199 196 177 35 25 6 358 355 350 348 341 337 336 329 324 315 294 286 287 278 274 273 277
165 194 170 93 98 34 145 141 110 129 186 271 292 282 254 245 196 166 179 201 219 220 218 247 9 353 341 335 330 336 335 324 321 329 328 322 317 309 299 298 295 290 286 282
160 164 186 157 193 184 131 136 128 127 162 180 268 275 228 211 201 194 208 223 229 223 218 247 294 319 325 329 330 329 331 329 326 327 325 324 318 315 312 302 294 291 289 289
160 134 204 241 217 178 175 174 152 165 214 189 206 267 274 207 201 194 212 235 236 201 185 220 303 328 332 329 325 324 322 322 317 318 319 316 312 313 311 303 297 294 290 288
142 128 106 348 355 85 190 182 173 140 135 170 189 258 313 124 147 205 211 217 195 134 117 25 341 326 317 314 317 318 316 314 313 317 318 315 312 310 306 301 298 296 291 289
125 140 177 203 215 184 197 195 172 153 180 212 220 243 267 266 264 260 224 196 157 136 92 344 319 308 305 307 310 312 311 311 313 315 313 308 305 302 298 296 295 293 289 288
123 184 219 235 206 180 210 209 195 200 204 218 235 233 247 249 245 223 179 152 128 86 352 325 310 304 307 312 313 313 310 311 312 313 309 301 297 295 294 294 292 291 288 286
117 165 170 260 166 214 252 242 227 227 226 234 256 268 256 245 144 145 161 156 150 307 315 313 310 310 311 311 311 313 310 308 310 306 299 297 297 297 295 294 293 293 291 288
146 138 149 243 304 352 270 238 219 214 208 198 224 236 177 121 137 165 178 173 206 293 302 306 307 305 305 305 306 304 300 304 305 299 297 297 297 296 295 296 296 295 294 290
148 147 156 171 140 238 244 190 176 187 223 204 199 179 153 157 175 212 178 170 268 296 303 307 306 305 305 304 303 298 299 302 301 298 296 295 296 296 297 297 295 295 293 292
150 144 141 158 219 271 287 233 177 181 240 207 173 158 136 100 40 337 235 177 270 291 294 292 293 293 299 301 301 305 305 303 300 298 296 296 297 298 300 299 297 297 297 296
79 117 139 156 196 242 248 191 157 117 239 209 154 150 145 116 73 269 277 317 312 314 311 308 309 306 304 302 306 305 301 302 300 298 297 296 295 296 298 298 298 298 296 296
129 150 180 187 219 257 249 194 129 172 234 167 154 158 161 178 204 238 313 321 316 316 314 314 311 303 297 299 304 299 299 297 294 295 296 296 294 293 295 296 296 297 298 297
174 178 190 173 204 247 201 143 178 193 136 141 154 169 186 216 257 299 316 314 321 320 315 313 307 301 299 299 299 297 296 294 295 296 297 297 296 295 300 298 299 298 298 299
202 194 187 194 212 268 179 171 154 136 140 159 169 185 194 238 277 299 302 306 306 302 298 295 293 296 298 295 291 292 295 298 300 300 299 299 299 296 293 295 299 302 299 298
232 157 163 225 254 232 142 122 117 124 139 151 152 160 178 241 273 286 288 291 296 293 293 292 296 297 299 297 291 285 292 297 299 301 302 302 303 304 299 293 294 297 300 300
209 163 176 228 236 135 209 191 158 129 108 99 67 140 216 235 263 268 276 282 283 286 287 287 288 290 292 294 293 291 292 297 299 300 301 302 301 301 304 300 295 297 292 293
194 180 180 215 206 183 209 203 171 160 184 212 220 238 236 223 248 267 271 273 278 283 286 290 289 288 291 294 295 294 292 291 296 303 304 304 304 303 303 305 304 299 299 301
Height
1531 1536 1538 1535 1535 1534 1535 1537 1540 1536 1529 1529 1527 1524 1517 1513 1513 1513 1514 1514 1513 1513 1512 1511 1509 1507 1506 1505 1505 1505 1505 1506 1507 1509 1510 1512 1514 1516 1517 1519 1520 1521 1522 1523
1535 1536 1529 1529 1531 1534 1536 1538 1538 1533 1528 1529 1528 1524 1517 1514 1514 1514 1515 1515 1514 1514 1513 1512 1511 1509 1508 1507 1506 1506 1505 1506 1506 1507 1508 1509 1511 1512 1513 1514 1515 1516 1516 1516
1533 1529 1525 1528 1531 1534 1535 1537 1534 1533 1530 1529 1529 1523 1518 1516 1515 1516 1516 1515 1515 1515 1514 1513 1512 1512 1510 1509 1508 1507 1507 1506 1506 1506 1506 1507 1507 1508 1509 1509 1509 1510 1510 1509
1530 1525 1525 1526 1528 1530 1534 1528 1530 1531 1534 1538 1535 1538 1523 1519 1517 1516 1516 1516 1516 1516 1516 1515 1514 1514 1513 1512 1511 1509 1508 1507 1506 1506 1506 1506 1506 1505 1505 1505 1504 1504 1504 1503
1526 1522 1523 1524 1523 1525 1526 1525 1528 1530 1534 1539 1538 1539 1529 1520 1519 1517 1516 1516 1516 1516 1516 1516 1516 1516 1515 1514 1513 1511 1510 1509 1508 1507 1506 1505 1504 1504 1503 1501 1500 1499 1498 1497
1521 1519 1518 1518 1519 1521 1523 1528 1533 1539 1542 1541 1534 1540 1530 1522 1516 1514 1514 1515 1516 1516 1517 1517 1517 1517 1516 1515 1514 1513 1511 1510 1509 1507 1506 1505 1503 1502 1500 1498 1496 1495 1493 1491
1520 1517 1515 1516 1520 1522 1524 1532 1541 1537 1542 1539 1534 1538 1528 1513 1511 1511 1511 1513 1515 1516 1516 1517 1517 1517 1516 1516 1515 1513 1512 1510 1509 1507 1505 1503 1501 1499 1497 1494 1492 1490 1487 1485
1522 1522 1515 1514 1516 1521 1524 1528 1539 1541 1545 1543 1535 1535 1520 1510 1508 1507 1509 1511 1513 1515 1516 1516 1516 1516 1516 1515 1514 1513 1511 1510 1508 1505 1503 1501 1498 1496 1493 1491 1488 1485 1482 1479
1522 1520 1514 1513 1514 1517 1524 1528 1530 1541 1543 1546 1538 1530 1517 1508 1508 1507 1508 1510 1512 1513 1514 1515 1516 1516 1515 1514 1513 1512 1510 1508 1505 1503 1500 1497 1495 1492 1489 1486 1483 1480 1477 1473
1512 1516 1514 1514 1514 1517 1519 1526 1536 1540 1542 1543 1538 1532 1522 1510 1509 1509 1509 1509 1511 1512 1513 1514 1514 1514 1514 1513 1512 1510 1508 1505 1502 1499 1496 1493 1490 1487 1484 1481 1478 1474 1471 1467
1508 1514 1517 1516 1517 1518 1523 1525 1529 1538 1540 1544 1543 1529 1510 1508 1507 1507 1507 1508 1509 1510 1511 1512 1512 1512 1512 1511 1509 1507 1504 1501 1498 1495 1492 1489 1486 1483 1479 1476 1473 1469 1465 1461
1506 1514 1519 1516 1514 1514 1516 1520 1527 1532 1535 1542 1542 1528 1503 1504 1504 1505 1506 1507 1508 1508 1509 1510 1510 1510 1510 1508 1506 1504 1501 1497 1494 1491 1488 1485 1481 1478 1475 1471 1467 1463 1459 1454
1504 1513 1520 1518 1520 1518 1516 1518 1521 1525 1532 1543 1541 1522 1504 1503 1503 1504 1505 1505 1506 1506 1507 1508 1508 1508 1507 1505 1502 1500 1496 1493 1490 1487 1483 1480 1477 1473 1469 1465 1460 1456 1451 1446
1498 1508 1513 1516 1513 1512 1514 1515 1519 1523 1529 1533 1527 1513 1505 1503 1503 1503 1503 1504 1504 1505 1506 1506 1506 1505 1503 1501 1498 1495 1492 1489 1485 1482 1479 1475 1471 1467 1462 1458 1453 1448 1443 1437
1497 1505 1506 1506 1505 1508 1508 1509 1512 1515 1514 1515 1509 1508 1502 1500 1500 1500 1501 1502 1503 1504 1504 1504 1503 1502 1499 1497 1494 1491 1488 1484 1481 1477 1474 1470 1465 1461 1456 1450 1445 1439 1434 1428
1497 1503 1506 1507 1506 1508 1509 1506 1506 1506 1506 1506 1504 1502 1497 1496 1497 1498 1500 1501 1502 1502 1502 1501 1500 1498 1495 1492 1489 1486 1483 1480 1476 1472 1468 1463 1458 1453 1448 1442 1436 1430 1424 1418
1500 1504 1509 1512 1510 1507 1508 1496 1496 1498 1497 1499 1500 1497 1495 1496 1497 1498 1499 1500 1500 1500 1500 1498 1496 1494 1491 1488 1485 1481 1478 1475 1471 1466 1462 1457 1451 1445 1439 1433 1427 1420 1414 1407
1498 1503 1509 1513 1510 1512 1493 1488 1488 1491 1491 1492 1492 1493 1494 1495 1496 1497 1498 1498 1498 1498 1496 1494 1492 1489 1487 1484 1481 1477 1474 1470 1465 1460 1455 1449 1443 1437 1430 1424 1418 1411 1404 1397
1493 1499 1510 1515 1513 1503 1492 1486 1487 1490 1490 1488 1490 1491 1493 1494 1495 1496 1497 1497 1496 1495 1493 1491 1488 1486 1483 1480 1476 1472 1468 1464 1459 1453 1447 1442 1436 1429 1422 1415 1408 1402 1395 1387
1495 1496 1505 1512 1510 1503 1487 1482 1481 1486 1490 1487 1487 1490 1492 1494 1498 1497 1495 1494 1493 1491 1489 1487 1484 1482 1479 1475 1471 1467 1462 1457 1452 1446 1440 1434 1428 1421 1414 1407 1400 1393 1386 1378
1497 1500 1503 1506 1504 1493 1481 1479 1481 1491 1485 1485 1486 1488 1490 1491 1493 1493 1492 1490 1489 1487 1485 1483 1480 1478 1474 1471 1466 1461 1456 1451 1445 1438 1432 1426 1420 1414 1406 1398 1392 1385 1377 1370
1488 1494 1499 1501 1501 1491 1477 1478 1481 1480 1481 1482 1485 1487 1488 1489 1489 1488 1488 1486 1485 1483 1481 1479 1476 1473 1470 1466 1460 1454 1449 1444 1437 1431 1424 1418 1412 1405 1398 1391 1383 1377 1370 1362
1481 1479 1482 1483 1481 1477 1475 1475 1476 1478 1480 1482 1483 1485 1485 1485 1485 1485 1484 1483 1481 1479 1477 1474 1471 1467 1464 1460 1455 1449 1443 1437 1430 1423 1416 1409 1403 1396 1390 1383 1375 1368 1362 1355
1475 1475 1478 1480 1476 1475 1475 1475 1477 1478 1479 1481 1482 1482 1483 1482 1482 1482 1481 1480 1478 1476 1473 1470 1466 1461 1457 1453 1449 1443 1436 1430 1422 1415 1408 1401 1394 1387 1381 1375 1369 1362 1355 1348
1470 1473 1475 1476 1474 1474 1474 1475 1476 1477 1478 1479 1480 1480 1480 1480 1479 1479 1478 1476 1474 1471 1468 1465 1461 1456 1451 1446 1441 1436 1430 1423 1415 1407 1401 1394 1387 1380 1372 1366 1361 1355 1349 1345
1468 1469 1472 1471 1469 1471 1471 1473 1475 1476 1476 1477 1477 1477 1478 1477 1477 1476 1474 1472 1470 1467 1463 1459 1455 1450 1444 1439 1433 1428 1422 1416 1408 1400 1393 1386 1380 1373 1366 1358 1351 1347 1343 1337